[Date Prev][Date Next][Thread Prev][Thread Next] - [Date Index][Thread Index][Author Index]

2 Line ISS Keps 2-8



ISS
1 25544U 98067A   04039.52131209  .00012931  00000-0  12451-3 0  1511
2 25544  51.6289 265.8477 0007433 141.0046 298.0103 15.66904668297973


----
Via the sarex mailing list at AMSAT.ORG courtesy of AMSAT-NA.
To unsubscribe, send "unsubscribe sarex" to Majordomo@amsat.org



AMSAT Top AMSAT Home